Location: Asheville, NC
(35.6000°N, 82.5500°W)
Time: 01:29:48
(UTC-05:00)

Vanguard 2 Rocket - Pass Details

Date: 11 December 2017
Orbit: 556 x 3326 km, 32.9° (Epoch: 20 January)

Event Time Altitude Azimuth Distance (km) Brightness Sun altitude
Rises 21:37:02 0° 257° (WSW) 5,638 11.5 -51.9°
Reaches altitude 10° 21:40:11 10° 257° (WSW) 4,934 11.0 -52.5°
Enters shadow 21:51:29 61° 244° (WSW) 3,211 9.4 -54.8°
Maximum altitude 21:55:59 81° 173° (S) 3,143 - -55.7°
Drops below altitude 10° 22:16:38 10° 90° (E) 6,187 - -59.8°
Sets 22:21:09 0° 90° (E) 7,064 - -60.6°
